CW4713 Weather Reports


Display with metric or nautical units.
time (UTC)temp
F
wind
direction
speed
MPH
gust
MPH
rain 1hr
in
rain 24hr
in
rain mn
in
humidity
%
barometer
mb
20260508095306 40 1 3.0 6.0 0.00 0.00 0.00 78 1012.8
20260508094805 40 342 0.0 3.0 0.00 0.00 0.00 78 1012.9
20260508094304 40 337 1.0 5.0 0.00 0.00 0.00 78 1012.8
20260508093803 40 3 1.0 5.0 0.00 0.00 0.00 77 1012.8
20260508093304 40 109 0.0 1.0 0.00 0.00 0.00 77 1012.8
20260508092804 40 120 0.0 1.0 0.00 0.00 0.00 77 1012.9
20260508092312 40 23 0.0 2.0 0.00 0.00 0.00 77 1013.0
20260508091804 40 358 3.0 5.0 0.00 0.00 0.00 76 1013.0
20260508091304 41 12 2.0 3.0 0.00 0.00 0.00 76 1013.0
20260508090804 41 345 1.0 2.0 0.00 0.00 0.00 76 1013.0
20260508090304 41 61 0.0 0.0 0.00 0.00 0.00 76 1013.1
20260508085804 41 61 0.0 0.0 0.00 0.00 0.00 76 1013.0
20260508085306 41 61 0.0 1.0 0.00 0.00 0.00 76 1013.1
20260508084804 41 17 0.0 3.0 0.00 0.00 0.00 75 1013.1
20260508074305 42 274 0.0 0.0 0.00 0.01 0.00 73 1013.5
20260508073804 42 296 2.0 3.0 0.00 0.01 0.00 73 1013.5
20260508073304 42 244 1.0 2.0 0.00 0.01 0.00 73 1013.5
20260508072804 42 244 1.0 2.0 0.00 0.01 0.00 73 1013.6
20260508072307 42 254 0.0 0.0 0.00 0.02 0.00 73 1013.6
20260508071804 42 254 1.0 1.0 0.00 0.02 0.00 72 1013.6
20260508071304 42 212 0.0 2.0 0.00 0.03 0.00 72 1013.7
20260508070804 43 212 2.0 5.0 0.00 0.03 0.00 72 1013.7
20260508070305 43 157 2.0 6.0 0.00 0.03 0.00 72 1013.8
20260508065804 43 172 3.0 6.0 0.00 0.04 0.00 72 1013.8
20260508065307 43 267 1.0 5.0 0.00 0.05 0.00 72 1013.8
20260508064804 43 309 1.0 6.0 0.00 0.05 0.00 72 1013.8
20260508064305 43 325 3.0 5.0 0.00 0.06 0.00 71 1013.7
20260508063804 43 336 2.0 3.0 0.00 0.06 0.00 71 1013.8
20260508063304 43 287 1.0 2.0 0.00 0.07 0.00 71 1013.8
20260508062804 43 305 0.0 1.0 0.00 0.07 0.00 71 1013.8
20260508062306 43 318 0.0 2.0 0.00 0.07 0.00 71 1013.8
20260508061804 43 4 1.0 2.0 0.00 0.08 0.00 71 1013.9
20260508061304 44 357 3.0 5.0 0.00 0.08 0.00 70 1013.8
20260508060804 44 23 2.0 3.0 0.00 0.09 0.00 70 1013.9
20260508060304 44 88 0.0 3.0 0.00 0.09 0.00 70 1013.9
20260508055803 44 108 1.0 2.0 0.00 0.09 0.00 70 1013.9
20260508055306 44 23 0.0 0.0 0.00 0.09 0.00 70 1013.9
20260508054804 44 23 0.0 3.0 0.00 0.09 0.00 70 1013.9
20260508054304 44 6 2.0 3.0 0.00 0.09 0.00 69 1013.9
20260508053804 45 6 2.0 5.0 0.00 0.10 0.00 69 1013.9
20260508053304 45 319 2.0 5.0 0.00 0.10 0.00 69 1013.9
20260508052804 45 350 3.0 3.0 0.00 0.10 0.00 69 1013.9
20260508052306 45 5 1.0 2.0 0.00 0.10 0.00 69 1013.9
20260508051804 45 116 1.0 5.0 0.00 0.10 0.00 68 1014.1
20260508051304 45 62 0.0 2.0 0.00 0.10 0.00 68 1014.0
20260508050804 45 287 1.0 5.0 0.00 0.10 0.00 68 1014.0
20260508050304 45 322 3.0 6.0 0.00 0.10 0.00 68 1013.9
20260508045803 45 319 3.0 5.0 0.00 0.10 0.00 69 1014.0
20260508045306 45 305 1.0 3.0 0.00 0.10 0.00 69 1014.0
20260508044804 45 334 3.0 6.0 0.00 0.10 0.00 69 1014.0
20260508044304 45 328 2.0 6.0 0.00 0.11 0.00 69 1014.1
20260508043804 45 340 3.0 5.0 0.00 0.12 0.00 69 1014.2
20260508043304 45 1 2.0 5.0 0.00 0.13 0.00 69 1014.2
20260508042804 45 339 2.0 5.0 0.00 0.14 0.00 69 1014.2
20260508021304 45 315 4.0 7.0 0.00 0.16 0.00 69 1015.4
20260508020804 45 327 5.0 7.0 0.00 0.16 0.00 69 1015.3
20260508020304 45 344 5.0 8.0 0.00 0.16 0.00 68 1015.4
20260508015805 45 348 4.0 8.0 0.00 0.16 0.00 68 1015.5
20260508015306 45 340 5.0 7.0 0.00 0.16 0.00 68 1015.5
20260508014804 45 343 6.0 7.0 0.00 0.16 0.00 68 1015.5
20260508014304 45 346 4.0 9.0 0.00 0.16 0.00 67 1015.4
20260508013804 45 336 6.0 9.0 0.00 0.16 0.00 67 1015.5
20260508013304 45 322 5.0 10.0 0.00 0.16 0.00 67 1015.5
20260508012804 45 347 6.0 10.0 0.00 0.16 0.00 67 1015.5
20260508012307 45 331 5.0 12.0 0.00 0.16 0.00 66 1015.6
20260508011804 45 326 5.0 9.0 0.00 0.16 0.00 66 1015.7
20260508011304 45 330 7.0 10.0 0.00 0.16 0.00 65 1015.3
20260508010804 45 331 7.0 10.0 0.00 0.16 0.00 65 1015.7
20260508010304 46 314 6.0 10.0 0.00 0.16 0.00 65 1015.7
20260508005804 46 313 5.0 9.0 0.00 0.16 0.00 65 1015.7
20260508005306 46 337 6.0 9.0 0.00 0.16 0.00 65 1015.7
20260508004804 46 353 7.0 9.0 0.00 0.16 0.00 65 1015.7
20260508004304 46 338 6.0 12.0 0.00 0.16 0.00 64 1015.8
20260508003803 46 343 7.0 10.0 0.00 0.16 0.00 64 1015.8
20260508003304 46 329 8.0 12.0 0.00 0.16 0.00 64 1015.9
20260508002804 46 331 5.0 9.0 0.00 0.16 0.00 65 1015.9
20260508002306 46 342 5.0 10.0 0.00 0.16 0.00 65 1016.0
20260508001804 46 338 7.0 12.0 0.00 0.16 0.00 65 1015.9
20260508001304 46 346 5.0 9.0 0.00 0.16 0.00 65 1016.1
20260508000805 46 0 7.0 12.0 0.00 0.16 0.00 65 1016.1
20260508000305 46 348 8.0 12.0 0.00 0.16 0.00 65 1016.1
20260507235804 46 345 7.0 12.0 0.00 0.16 0.00 65 1016.2
20260507235307 46 344 9.0 12.0 0.00 0.16 0.00 65 1016.2
20260507234804 46 3 5.0 10.0 0.00 0.16 0.00 65 1016.3
20260507234304 46 9 4.0 10.0 0.00 0.16 0.00 64 1016.3
20260507233804 46 5 5.0 10.0 0.00 0.16 0.00 64 1016.3
20260507233304 46 9 5.0 10.0 0.00 0.16 0.00 63 1016.4
20260507232804 46 37 6.0 10.0 0.00 0.16 0.00 63 1016.4
20260507232306 46 343 8.0 13.0 0.00 0.16 0.00 62 1016.3
20260507231804 47 2 8.0 10.0 0.00 0.16 0.00 61 1016.4
20260507231305 47 301 2.0 6.0 0.00 0.16 0.00 61 1016.4
20260507230804 47 338 5.0 8.0 0.00 0.16 0.00 60 1016.4
20260507220305 49 188 6.0 10.0 0.00 0.16 0.00 54 1016.6
20260507215804 49 137 4.0 7.0 0.00 0.16 0.00 55 1016.6
20260507215306 49 161 4.0 7.0 0.00 0.16 0.00 54 1016.6
20260507214804 49 166 4.0 10.0 0.00 0.16 0.00 56 1016.7
20260507214304 49 188 4.0 7.0 0.00 0.16 0.00 56 1016.7
20260507213804 49 168 4.0 8.0 0.00 0.16 0.00 56 1016.7
20260507213304 49 195 6.0 10.0 0.00 0.16 0.00 56 1016.7
20260507212804 48 227 7.0 13.0 0.00 0.16 0.00 55 1016.7
20260507212307 49 208 8.0 15.0 0.00 0.16 0.00 55 1016.7
20260507211805 49 241 5.0 8.0 0.00 0.16 0.00 57 1016.7
20260507211304 48 225 4.0 9.0 0.00 0.16 0.00 58 1016.7
20260507210804 48 219 3.0 10.0 0.00 0.16 0.00 56 1016.7
20260507210304 48 323 1.0 2.0 0.00 0.16 0.00 59 1016.7
20260507205805 48 232 1.0 6.0 0.00 0.16 0.00 59 1016.8
20260507205306 48 158 3.0 5.0 0.00 0.16 0.00 59 1016.8
20260507204804 48 151 5.0 7.0 0.00 0.16 0.00 59 1017.0
20260507204304 48 189 4.0 8.0 0.00 0.16 0.00 59 1017.0
20260507203804 48 123 6.0 13.0 0.00 0.16 0.00 58 1017.0
20260507203304 48 203 5.0 8.0 0.00 0.16 0.00 60 1017.1
20260507202804 48 216 6.0 9.0 0.00 0.16 0.00 60 1017.1
20260507202306 47 223 5.0 9.0 0.00 0.16 0.00 59 1017.1
20260507201804 47 206 4.0 10.0 0.00 0.16 0.00 59 1017.1
20260507201304 47 166 7.0 12.0 0.00 0.16 0.00 58 1017.1
20260507200803 47 188 6.0 13.0 0.00 0.16 0.00 59 1017.0
20260507200304 47 213 7.0 13.0 0.00 0.16 0.00 61 1017.1
20260507195804 47 187 6.0 12.0 0.00 0.16 0.00 62 1017.1
20260507195305 47 230 4.0 9.0 0.00 0.16 0.00 64 1017.2
20260507194804 47 184 5.0 8.0 0.00 0.16 0.00 68 1017.2
20260507194304 47 163 2.0 7.0 0.00 0.16 0.00 70 1017.2
20260507193805 46 112 0.0 1.0 0.00 0.16 0.00 70 1017.2
20260507193304 46 90 3.0 5.0 0.00 0.16 0.00 69 1017.2
20260507192804 46 66 2.0 3.0 0.00 0.16 0.00 69 1017.2
20260507192306 46 186 2.0 5.0 0.00 0.16 0.00 69 1017.2
20260507191804 46 183 3.0 6.0 0.00 0.16 0.00 69 1017.2
20260507191304 46 214 5.0 9.0 0.00 0.16 0.00 68 1017.3
20260507190804 45 223 7.0 13.0 0.00 0.16 0.00 68 1017.3
20260507190304 45 225 7.0 9.0 0.00 0.16 0.00 71 1017.3
20260507185804 45 224 6.0 9.0 0.00 0.16 0.00 73 1017.4
20260507185306 45 184 3.0 8.0 0.00 0.16 0.00 76 1017.4
20260507184804 45 240 2.0 5.0 0.00 0.16 0.00 77 1017.5
20260507174304 43 81 1.0 3.0 0.00 0.16 0.00 84 1017.4
20260507163804 40 164 1.0 2.0 0.00 0.16 0.00 90 1017.7
20260507163303 40 16 1.0 2.0 0.00 0.16 0.00 90 1017.7
20260507162804 40 56 2.0 2.0 0.00 0.16 0.00 90 1017.8
20260507162306 39 42 0.0 1.0 0.00 0.16 0.00 91 1017.7
20260507161804 39 85 1.0 2.0 0.00 0.16 0.00 91 1017.6
20260507161304 39 192 0.0 0.0 0.00 0.16 0.00 91 1017.7
20260507160803 39 192 0.0 2.0 0.00 0.16 0.00 91 1017.7
20260507160303 39 246 0.0 2.0 0.00 0.16 0.00 91 1017.6
20260507155804 38 202 1.0 3.0 0.00 0.16 0.00 91 1017.6
20260507155306 38 52 0.0 0.0 0.00 0.16 0.00 91 1017.7
20260507154804 38 52 0.0 1.0 0.00 0.16 0.00 90 1017.6
20260507154304 38 37 1.0 2.0 0.00 0.16 0.00 90 1017.7
20260507153804 38 51 1.0 2.0 0.00 0.16 0.00 90 1017.6
20260507153304 38 91 2.0 3.0 0.00 0.16 0.00 90 1017.7
20260507152804 38 107 1.0 2.0 0.00 0.16 0.00 90 1017.6
20260507152306 38 56 0.0 0.0 0.00 0.16 0.00 90 1017.6
20260507151804 38 56 0.0 1.0 0.00 0.16 0.00 90 1017.7
20260507151304 38 117 0.0 0.0 0.00 0.16 0.00 89 1017.7
20260507150804 38 117 0.0 0.0 0.00 0.16 0.00 89 1017.7
20260507150303 38 117 0.0 0.0 0.00 0.16 0.00 89 1017.7
20260507145804 38 117 0.0 0.0 0.00 0.16 0.00 89 1017.8
20260507145306 38 117 0.0 0.0 0.00 0.16 0.00 89 1017.7
20260507144804 38 117 0.0 0.0 0.00 0.16 0.00 89 1017.7
20260507144304 38 117 0.0 2.0 0.00 0.16 0.00 88 1017.6
20260507143804 38 152 1.0 2.0 0.00 0.16 0.00 88 1017.7
20260507143304 38 44 1.0 2.0 0.00 0.16 0.00 88 1017.6
20260507142804 38 132 1.0 3.0 0.00 0.16 0.00 88 1017.7
20260507142306 38 117 0.0 0.0 0.00 0.16 0.00 88 1017.7
20260507141804 38 117 0.0 0.0 0.00 0.16 0.00 88 1017.7
20260507141304 38 117 0.0 0.0 0.00 0.16 0.00 88 1017.8
20260507140805 38 117 1.0 2.0 0.00 0.16 0.00 88 1017.8
20260507140304 38 169 2.0 3.0 0.00 0.16 0.00 88 1017.8
20260507135805 38 177 0.0 3.0 0.00 0.16 0.00 88 1017.8
20260507135306 38 217 3.0 6.0 0.00 0.16 0.00 88 1017.9
20260507134804 38 207 3.0 6.0 0.00 0.16 0.00 88 1017.9
20260507134304 38 239 2.0 6.0 0.00 0.16 0.00 89 1017.9
20260507133805 38 218 3.0 8.0 0.00 0.16 0.00 89 1017.9
20260507133304 38 189 1.0 3.0 0.00 0.16 0.00 89 1017.9
20260507132804 38 146 2.0 3.0 0.00 0.16 0.00 89 1017.9
20260507132307 38 163 2.0 2.0 0.00 0.16 0.00 89 1017.8
20260507131804 38 164 1.0 2.0 0.00 0.16 0.00 89 1017.7
20260507131304 38 135 2.0 3.0 0.00 0.16 0.00 89 1017.7
20260507130804 38 205 1.0 3.0 0.00 0.16 0.00 89 1017.6
20260507130304 38 161 1.0 2.0 0.00 0.16 0.00 89 1017.6
20260507125804 38 148 1.0 5.0 0.00 0.16 0.00 89 1017.6
20260507125306 38 149 3.0 5.0 0.00 0.16 0.00 89 1017.5
20260507124805 38 153 3.0 6.0 0.00 0.16 0.00 89 1017.4
20260507124304 38 151 3.0 6.0 0.00 0.16 0.00 90 1017.5
20260507123804 38 154 4.0 6.0 0.00 0.16 0.00 90 1017.5
20260507123304 38 148 2.0 6.0 0.00 0.16 0.00 90 1017.5
20260507122805 38 167 3.0 5.0 0.00 0.16 0.00 90 1017.6
20260507122307 38 172 3.0 5.0 0.00 0.16 0.00 90 1017.5
20260507121804 38 144 3.0 5.0 0.00 0.16 0.00 90 1017.5
20260507121304 38 145 3.0 6.0 0.00 0.16 0.00 90 1017.6
20260507120804 38 137 3.0 5.0 0.00 0.16 0.00 90 1017.6
20260507120304 38 126 2.0 5.0 0.00 0.16 0.00 91 1017.6
20260507115804 38 146 2.0 6.0 0.00 0.16 0.00 91 1017.5
20260507115307 38 210 4.0 10.0 0.00 0.16 0.00 91 1017.5
20260507114804 38 160 1.0 2.0 0.00 0.16 0.00 91 1017.5
20260507114304 38 189 2.0 3.0 0.00 0.16 0.00 91 1017.5
20260507113804 38 169 3.0 6.0 0.00 0.16 0.00 91 1017.4
20260507113304 38 170 4.0 6.0 0.00 0.16 0.00 91 1017.5
20260507112803 38 206 2.0 3.0 0.00 0.16 0.00 91 1017.4
20260507112306 37 162 3.0 6.0 0.00 0.16 0.00 91 1017.4
20260507111804 37 115 1.0 3.0 0.00 0.16 0.00 91 1017.4
20260507111304 37 77 0.0 1.0 0.00 0.16 0.00 91 1017.4
20260507110804 38 139 1.0 2.0 0.00 0.16 0.00 91 1017.4
20260507110304 38 151 2.0 3.0 0.00 0.16 0.00 91 1017.4
20260507105804 38 113 1.0 3.0 0.00 0.16 0.00 91 1017.4
20260507105306 38 136 2.0 3.0 0.00 0.16 0.00 91 1017.5
20260507104804 38 93 0.0 2.0 0.00 0.16 0.00 91 1017.4
20260507104304 38 109 0.0 0.0 0.00 0.16 0.00 91 1017.4
20260507103804 38 109 0.0 3.0 0.00 0.16 0.00 91 1017.5
20260507103304 38 158 2.0 3.0 0.00 0.16 0.00 91 1017.4
20260507102803 38 166 3.0 5.0 0.00 0.16 0.00 91 1017.5
20260507102306 38 159 1.0 2.0 0.00 0.16 0.00 91 1017.4
20260507101804 38 178 2.0 5.0 0.00 0.16 0.00 91 1017.4
20260507101304 38 133 2.0 3.0 0.00 0.16 0.00 91 1017.4
20260507100804 38 199 3.0 5.0 0.00 0.16 0.00 91 1017.4
20260507100304 38 191 2.0 3.0 0.00 0.16 0.00 91 1017.4
20260507095805 38 156 1.0 3.0 0.00 0.16 0.00 91 1017.4